Ord, NE

3:54 PM CDT on May 21, 2018 (GMT -0500)
Sharp

Weather History for KODX - July, 2014

Change the Weather History Date:

Friday, July 25, 2014

  Actual Average Record
Temperature  
Mean Temperature 78 °F 75 °F  
Max Temperature 90 °F 88 °F 99 °F (2002)
Min Temperature 66 °F 62 °F 46 °F (2004)
Degree Days  
Heating Degree Days 0 0  
Month to date heating degree days 19 0  
Since 1 June heating degree days 51 37  
Since 1 July heating degree days 19 0  
Cooling Degree Days 13 10  
Month to date cooling degree days 151 237  
Year to date cooling degree days 366 440  
Since 1 June cooling degree days 297 399  
Growing Degree Days 28 (Base 50)    
Moisture  
Dew Point 69 °F    
Average Humidity 76    
Maximum Humidity 100    
Minimum Humidity 52    
Precipitation  
Precipitation 0.00 in 0.08 in 1.17 in (1986)
Month to date precipitation 1.97 2.09  
Year to date precipitation 12.27 14.87  
Sea Level Pressure  
Sea Level Pressure 29.75 in    
Wind  
Wind Speed 7 mph (North)    
Max Wind Speed 20 mph    
Max Gust Speed 29 mph    
Visibility 9 miles    
Events      
T = Trace of Precipitation, MM = Missing Value Source: NWS Daily Summary

Daily Weather History Graph

Daily Weather History Graph

Search for Another Location

Airport or City:

Astronomy

Jul. 25, 2014 Rise Set
Actual Time 6:23 AM CDT 9:00 PM CDT
Civil Twilight 5:51 AM CDT 9:32 PM CDT
Nautical Twilight 5:11 AM CDT 10:12 PM CDT
Astronomical Twilight 4:25 AM CDT 10:57 PM CDT
Moon 5:24 AM CDT (7/25) 7:57 PM CDT (7/25)
Length of Visible Light 15h 41m
Length of Day
14h 37m
Waning Crescent, 1% of the Moon is Illuminated
Jul 25
Waning Crescent
Jul 26
New
Aug 3
First Quarter
Aug 10
Full
Aug 17
Last Quarter

Hourly Weather History & Observations

Time (CDT) Temp. Heat Index Dew Point Humidity Pressure Visibility Wind Dir Wind Speed Gust Speed Precip Events Conditions
12:53 AM 75.0 °F - 68.0 °F 79% 29.77 in 10.0 mi SSE 17.3 mph 24.2 mph N/A   Clear
1:53 AM 73.0 °F - 66.9 °F 81% 29.75 in 10.0 mi ESE 10.4 mph - N/A   Clear
2:53 AM 73.0 °F - 66.9 °F 81% 29.73 in 10.0 mi SE 12.7 mph - N/A   Clear
3:53 AM 72.0 °F - 66.9 °F 84% 29.69 in 10.0 mi SSE 11.5 mph - N/A   Clear
4:53 AM 70.0 °F - 68.0 °F 93% 29.68 in 10.0 mi SE 4.6 mph - N/A   Clear
5:53 AM 66.9 °F - 66.0 °F 97% 29.69 in 5.0 mi ESE 3.5 mph - N/A   Clear
6:53 AM 68.0 °F - 66.0 °F 93% 29.70 in 3.0 mi SSE 4.6 mph - N/A   Clear
7:53 AM 70.0 °F - 68.0 °F 93% 29.70 in 6.0 mi Variable 3.5 mph - N/A   Clear
8:53 AM 75.9 °F - 70.0 °F 82% 29.73 in 9.0 mi Calm Calm - N/A   Clear
9:53 AM 79.0 °F - 64.9 °F 62% 29.74 in 10.0 mi NNW 11.5 mph - N/A   Clear
10:53 AM 82.0 °F 83.8 °F 64.9 °F 56% 29.76 in 10.0 mi NNW 17.3 mph 21.9 mph N/A   Clear
11:53 AM 84.0 °F 86.5 °F 66.9 °F 56% 29.76 in 10.0 mi NNW 12.7 mph - N/A   Clear
12:53 PM 86.0 °F 89.4 °F 68.0 °F 55% 29.77 in 10.0 mi North 11.5 mph - N/A   Clear
1:53 PM 87.1 °F 92.0 °F 70.0 °F 57% 29.78 in 10.0 mi NNW 8.1 mph - N/A   Clear
2:53 PM 88.0 °F 92.9 °F 70.0 °F 55% 29.77 in 10.0 mi North 11.5 mph - N/A   Clear
3:53 PM 89.1 °F 94.1 °F 70.0 °F 53% 29.77 in 10.0 mi North 10.4 mph - N/A   Clear
4:53 PM 89.1 °F 94.1 °F 70.0 °F 53% 29.77 in 10.0 mi North 6.9 mph - N/A   Clear
5:53 PM 90.0 °F 94.5 °F 69.1 °F 50% 29.77 in 10.0 mi North 5.8 mph - N/A   Clear
6:53 PM 86.0 °F 91.5 °F 71.1 °F 61% 29.76 in 10.0 mi SSW 3.5 mph - N/A   Clear
7:53 PM 84.9 °F 91.4 °F 73.0 °F 67% 29.76 in 10.0 mi SSW 3.5 mph - N/A   Clear
8:53 PM 78.1 °F - 73.9 °F 87% 29.78 in 10.0 mi WSW 4.6 mph - N/A   Clear
9:53 PM 77.0 °F - 71.1 °F 82% 29.80 in 10.0 mi Calm Calm - N/A   Clear
10:53 PM 75.9 °F - 72.0 °F 87% 29.82 in 10.0 mi NNW 4.6 mph - N/A   Clear
11:53 PM 75.2 °F - 71.6 °F 89% 29.85 in 10.0 mi Calm Calm - N/A   Clear